Time,TemperatureF,DewpointF,PressureIn,WindDirection,WindDirectionDegrees,WindSpeedMPH,WindSpeedGustMPH,Humidity,HourlyPrecipIn,Conditions,Clouds,dailyrainin,SoftwareType,DateUTC
2013-04-25 00:00:00,35.3,32.9,30.22,WNW,289,0.0,0.0,91,0.00,,OVC090,0.44,VWS V14.01,2013-04-25 04:00:00,
2013-04-25 00:01:00,35.5,33.1,30.22,WNW,289,0.0,0.0,91,0.00,,BKN035,0.00,VWS V14.01,2013-04-25 04:01:00,
2013-04-25 00:06:00,35.6,33.2,30.23,WNW,289,0.0,0.0,91,0.00,,BKN035,0.00,VWS V14.01,2013-04-25 04:06:00,
2013-04-25 00:11:00,35.9,33.5,30.23,WNW,289,0.0,0.0,91,0.00,,BKN035,0.00,VWS V14.01,2013-04-25 04:11:00,
2013-04-25 00:15:00,35.9,33.5,30.23,WNW,289,0.0,0.0,91,0.00,,OVC090,0.00,VWS V14.01,2013-04-25 04:15:00,
2013-04-25 00:16:00,35.9,33.5,30.23,WNW,289,0.0,0.0,91,0.00,,BKN035,0.00,VWS V14.01,2013-04-25 04:16:00,
2013-04-25 00:21:00,35.9,33.5,30.23,WNW,289,0.0,0.0,91,0.00,,BKN035,0.00,VWS V14.01,2013-04-25 04:21:00,
2013-04-25 00:26:00,35.8,33.4,30.23,WNW,289,0.0,0.0,91,0.00,,BKN035,0.00,VWS V14.01,2013-04-25 04:26:00,
2013-04-25 00:30:00,35.6,33.2,30.23,WNW,289,0.0,0.0,91,0.00,,OVC090,0.00,VWS V14.01,2013-04-25 04:30:00,
2013-04-25 00:31:00,35.5,33.1,30.23,WNW,289,0.0,0.0,91,0.00,,BKN035,0.00,VWS V14.01,2013-04-25 04:31:00,
2013-04-25 00:36:00,35.3,32.9,30.24,WNW,289,0.0,0.0,91,0.00,,BKN035,0.00,VWS V14.01,2013-04-25 04:36:00,
2013-04-25 00:41:00,35.3,32.9,30.24,WNW,289,0.0,0.0,91,0.00,,BKN035,0.00,VWS V14.01,2013-04-25 04:41:00,
2013-04-25 00:45:00,35.3,32.9,30.24,WNW,289,0.0,0.0,91,0.00,,OVC090,0.00,VWS V14.01,2013-04-25 04:45:00,
2013-04-25 00:46:00,35.5,33.1,30.24,WNW,289,0.0,0.0,91,0.00,,BKN035,0.00,VWS V14.01,2013-04-25 04:46:00,
2013-04-25 00:52:00,35.6,33.5,30.25,WNW,289,0.0,0.0,92,0.00,,BKN035,0.00,VWS V14.01,2013-04-25 04:52:00,
2013-04-25 00:57:00,35.5,33.1,30.25,WNW,289,0.0,0.0,91,0.00,,BKN035,0.00,VWS V14.01,2013-04-25 04:57:00,
2013-04-25 01:00:00,35.5,33.1,30.25,WNW,289,0.0,0.0,91,0.00,,OVC090,0.00,VWS V14.01,2013-04-25 05:00:00,
2013-04-25 01:02:00,35.5,33.1,30.25,WNW,289,0.0,0.0,91,0.00,,BKN047,0.00,VWS V14.01,2013-04-25 05:02:00,
2013-04-25 01:07:00,35.5,33.1,30.25,WNW,289,0.0,0.0,91,0.00,,BKN047,0.00,VWS V14.01,2013-04-25 05:07:00,
2013-04-25 01:12:00,35.3,32.9,30.25,WNW,289,0.0,0.0,91,0.00,,BKN047,0.00,VWS V14.01,2013-04-25 05:12:00,
2013-04-25 01:15:00,35.2,32.8,30.25,WNW,289,0.0,0.0,91,0.00,,OVC090,0.00,VWS V14.01,2013-04-25 05:15:00,
2013-04-25 01:17:00,35.2,32.8,30.25,WNW,289,0.0,0.0,91,0.00,,BKN047,0.00,VWS V14.01,2013-04-25 05:17:00,
2013-04-25 01:22:00,35.2,33.1,30.25,WNW,289,0.0,0.0,92,0.00,,BKN047,0.00,VWS V14.01,2013-04-25 05:22:00,
2013-04-25 01:27:00,35.2,33.1,30.25,WNW,289,0.0,0.0,92,0.00,,BKN047,0.00,VWS V14.01,2013-04-25 05:27:00,
2013-04-25 01:30:00,35.2,33.1,30.25,WNW,289,0.0,0.0,92,0.00,,OVC090,0.00,VWS V14.01,2013-04-25 05:30:00,
2013-04-25 01:32:00,35.2,33.1,30.25,WNW,289,0.0,0.0,92,0.00,,BKN047,0.00,VWS V14.01,2013-04-25 05:32:00,
2013-04-25 01:37:00,35.2,33.1,30.26,WNW,288,0.0,0.0,92,0.00,,BKN047,0.00,VWS V14.01,2013-04-25 05:37:00,
2013-04-25 01:42:00,35.5,33.4,30.26,WSW,254,0.0,0.0,92,0.00,,BKN047,0.00,VWS V14.01,2013-04-25 05:42:00,
2013-04-25 01:45:00,35.5,33.4,30.26,WSW,254,0.0,0.0,92,0.00,,OVC090,0.00,VWS V14.01,2013-04-25 05:45:00,
2013-04-25 01:47:00,35.5,33.4,30.26,WSW,254,0.0,0.0,92,0.00,,BKN047,0.00,VWS V14.01,2013-04-25 05:47:00,
2013-04-25 01:52:00,35.3,33.2,30.25,WSW,254,0.0,0.0,92,0.00,,BKN047,0.00,VWS V14.01,2013-04-25 05:52:00,
2013-04-25 01:57:00,35.2,32.8,30.25,WSW,254,0.0,0.0,91,0.00,,BKN047,0.00,VWS V14.01,2013-04-25 05:57:00,
2013-04-25 02:00:00,35.0,32.6,30.25,WSW,254,0.0,0.0,91,0.00,,OVC090,0.00,VWS V14.01,2013-04-25 06:00:00,
2013-04-25 02:02:00,34.9,32.5,30.25,WSW,254,0.0,0.0,91,0.00,,CLR,0.00,VWS V14.01,2013-04-25 06:02:00,
2013-04-25 02:07:00,34.6,32.2,30.26,WSW,254,0.0,0.0,91,0.00,,CLR,0.00,VWS V14.01,2013-04-25 06:07:00,
2013-04-25 02:12:00,34.3,32.0,30.27,WSW,254,0.0,0.0,91,0.00,,CLR,0.00,VWS V14.01,2013-04-25 06:12:00,
2013-04-25 02:15:00,34.1,31.8,30.26,WSW,254,0.0,0.0,91,0.00,,OVC090,0.00,VWS V14.01,2013-04-25 06:15:00,
2013-04-25 02:17:00,34.0,31.6,30.26,WSW,254,0.0,0.0,91,0.00,,CLR,0.00,VWS V14.01,2013-04-25 06:17:00,
2013-04-25 02:22:00,33.8,31.5,30.26,WSW,254,0.0,0.0,91,0.00,,CLR,0.00,VWS V14.01,2013-04-25 06:22:00,
2013-04-25 02:27:00,33.7,31.4,30.26,WSW,254,0.0,0.0,91,0.00,,CLR,0.00,VWS V14.01,2013-04-25 06:27:00,
2013-04-25 02:30:00,33.5,31.2,30.27,WSW,254,0.0,0.0,91,0.00,,OVC090,0.00,VWS V14.01,2013-04-25 06:30:00,
2013-04-25 02:32:00,33.5,31.2,30.27,WSW,254,0.0,0.0,91,0.00,,CLR,0.00,VWS V14.01,2013-04-25 06:32:00,
2013-04-25 02:37:00,33.4,31.1,30.27,WSW,254,0.0,0.0,91,0.00,,CLR,0.00,VWS V14.01,2013-04-25 06:37:00,
2013-04-25 02:42:00,33.2,31.1,30.27,WSW,254,0.0,0.0,92,0.00,,CLR,0.00,VWS V14.01,2013-04-25 06:42:00,
2013-04-25 02:45:00,33.2,31.1,30.27,WSW,254,0.0,0.0,92,0.00,,OVC090,0.00,VWS V14.01,2013-04-25 06:45:00,
2013-04-25 02:47:00,33.1,31.0,30.27,WSW,254,0.0,0.0,92,0.00,,CLR,0.00,VWS V14.01,2013-04-25 06:47:00,
2013-04-25 02:52:00,33.1,31.0,30.27,WSW,254,0.0,0.0,92,0.00,,CLR,0.00,VWS V14.01,2013-04-25 06:52:00,
2013-04-25 02:57:00,32.9,30.6,30.27,WSW,254,0.0,0.0,91,0.00,,CLR,0.00,VWS V14.01,2013-04-25 06:57:00,
2013-04-25 03:00:00,32.9,30.8,30.27,WSW,254,0.0,0.0,92,0.00,,OVC090,0.00,VWS V14.01,2013-04-25 07:00:00,
2013-04-25 03:02:00,32.8,30.7,30.27,WSW,254,0.0,0.0,92,0.00,,CLR,0.00,VWS V14.01,2013-04-25 07:02:00,
2013-04-25 03:07:00,32.8,30.7,30.27,WSW,254,0.0,0.0,92,0.00,,CLR,0.00,VWS V14.01,2013-04-25 07:07:00,
2013-04-25 03:12:00,32.8,30.7,30.27,WSW,254,0.0,0.0,92,0.00,,CLR,0.00,VWS V14.01,2013-04-25 07:12:00,
2013-04-25 03:15:00,32.7,30.6,30.27,WSW,254,0.0,0.0,92,0.00,,OVC090,0.00,VWS V14.01,2013-04-25 07:15:00,
2013-04-25 03:17:00,32.7,30.6,30.27,WSW,254,0.0,0.0,92,0.00,,CLR,0.00,VWS V14.01,2013-04-25 07:17:00,
2013-04-25 03:22:00,32.5,30.4,30.27,WSW,254,0.0,0.0,92,0.00,,CLR,0.00,VWS V14.01,2013-04-25 07:22:00,
2013-04-25 03:27:00,32.5,30.4,30.27,WSW,254,0.0,0.0,92,0.00,,CLR,0.00,VWS V14.01,2013-04-25 07:27:00,
2013-04-25 03:30:00,32.4,30.3,30.27,WSW,254,0.0,0.0,92,0.00,,OVC090,0.00,VWS V14.01,2013-04-25 07:30:00,
2013-04-25 03:32:00,32.4,30.3,30.27,WSW,254,0.0,0.0,92,0.00,,CLR,0.00,VWS V14.01,2013-04-25 07:32:00,
2013-04-25 03:37:00,32.4,30.3,30.27,WSW,254,0.0,0.0,92,0.00,,CLR,0.00,VWS V14.01,2013-04-25 07:37:00,
2013-04-25 03:43:00,32.2,30.1,30.27,WSW,254,0.0,0.0,92,0.00,,CLR,0.00,VWS V14.01,2013-04-25 07:43:00,
2013-04-25 03:45:00,32.2,30.1,30.28,WSW,254,0.0,0.0,92,0.00,,OVC090,0.00,VWS V14.01,2013-04-25 07:45:00,
2013-04-25 03:48:00,32.2,30.1,30.28,WSW,254,0.0,0.0,92,0.00,,CLR,0.00,VWS V14.01,2013-04-25 07:48:00,
2013-04-25 03:53:00,32.2,30.1,30.28,WSW,254,0.0,0.0,92,0.00,,CLR,0.00,VWS V14.01,2013-04-25 07:53:00,
2013-04-25 03:58:00,32.2,30.1,30.27,WSW,254,0.0,0.0,92,0.00,,CLR,0.00,VWS V14.01,2013-04-25 07:58:00,
2013-04-25 04:00:00,32.2,30.1,30.27,WSW,254,0.0,0.0,92,0.00,,OVC090,0.00,VWS V14.01,2013-04-25 08:00:00,
2013-04-25 04:03:00,32.1,30.0,30.27,WSW,254,0.0,0.0,92,0.00,,CLR,0.00,VWS V14.01,2013-04-25 08:03:00,
2013-04-25 04:08:00,32.1,30.0,30.28,WSW,254,0.0,0.0,92,0.00,,CLR,0.00,VWS V14.01,2013-04-25 08:08:00,
2013-04-25 04:13:00,31.9,29.8,30.27,WSW,254,0.0,0.0,92,0.00,,CLR,0.00,VWS V14.01,2013-04-25 08:13:00,
2013-04-25 04:15:00,31.8,29.8,30.27,WSW,254,0.0,0.0,92,0.00,,OVC090,0.00,VWS V14.01,2013-04-25 08:15:00,
2013-04-25 04:18:00,31.8,29.8,30.27,WSW,254,0.0,0.0,92,0.00,,CLR,0.00,VWS V14.01,2013-04-25 08:18:00,
2013-04-25 04:23:00,31.5,29.5,30.27,WSW,254,0.0,0.0,92,0.00,,CLR,0.00,VWS V14.01,2013-04-25 08:23:00,
2013-04-25 04:28:00,31.3,29.2,30.27,WSW,254,0.0,0.0,92,0.00,,CLR,0.00,VWS V14.01,2013-04-25 08:28:00,
2013-04-25 04:30:00,31.3,29.2,30.27,WSW,254,0.0,0.0,92,0.00,,OVC090,0.00,VWS V14.01,2013-04-25 08:30:00,
2013-04-25 04:33:00,31.2,29.1,30.27,WSW,254,0.0,0.0,92,0.00,,CLR,0.00,VWS V14.01,2013-04-25 08:33:00,
2013-04-25 04:38:00,31.0,29.0,30.27,WSW,254,0.0,0.0,92,0.00,,CLR,0.00,VWS V14.01,2013-04-25 08:38:00,
2013-04-25 04:43:00,31.0,29.0,30.27,WSW,254,0.0,0.0,92,0.00,,CLR,0.00,VWS V14.01,2013-04-25 08:43:00,
2013-04-25 04:45:00,30.9,28.9,30.27,WSW,254,0.0,0.0,92,0.00,,OVC090,0.00,VWS V14.01,2013-04-25 08:45:00,
2013-04-25 04:48:00,30.9,28.9,30.27,WSW,254,0.0,0.0,92,0.00,,CLR,0.00,VWS V14.01,2013-04-25 08:48:00,
2013-04-25 04:53:00,30.7,28.7,30.27,WSW,254,0.0,0.0,92,0.00,,CLR,0.00,VWS V14.01,2013-04-25 08:53:00,
2013-04-25 04:58:00,30.7,28.7,30.27,WSW,254,0.0,0.0,92,0.00,,CLR,0.00,VWS V14.01,2013-04-25 08:58:00,
2013-04-25 05:00:00,30.7,28.7,30.27,WSW,254,0.0,0.0,92,0.00,,OVC090,0.00,VWS V14.01,2013-04-25 09:00:00,
2013-04-25 05:03:00,30.7,28.7,30.27,WSW,254,0.0,0.0,92,0.00,,CLR,0.00,VWS V14.01,2013-04-25 09:03:00,
2013-04-25 05:08:00,30.7,28.7,30.28,WSW,254,0.0,0.0,92,0.00,,CLR,0.00,VWS V14.01,2013-04-25 09:08:00,
2013-04-25 05:13:00,30.7,28.7,30.28,WSW,254,0.0,0.0,92,0.00,,CLR,0.00,VWS V14.01,2013-04-25 09:13:00,
2013-04-25 05:15:00,30.7,28.7,30.28,WSW,254,0.0,0.0,92,0.00,,OVC090,0.00,VWS V14.01,2013-04-25 09:15:00,
2013-04-25 05:18:00,30.7,28.7,30.28,WSW,254,0.0,0.0,92,0.00,,CLR,0.00,VWS V14.01,2013-04-25 09:18:00,
2013-04-25 05:23:00,30.7,28.7,30.28,WSW,254,0.0,0.0,92,0.00,,CLR,0.00,VWS V14.01,2013-04-25 09:23:00,
2013-04-25 05:28:00,30.6,28.6,30.29,WSW,254,0.0,0.0,92,0.00,,CLR,0.00,VWS V14.01,2013-04-25 09:28:00,
2013-04-25 05:30:00,30.6,28.6,30.28,WSW,254,0.0,0.0,92,0.00,,OVC090,0.00,VWS V14.01,2013-04-25 09:30:00,
2013-04-25 05:33:00,30.6,28.6,30.28,WSW,254,0.0,0.0,92,0.00,,CLR,0.00,VWS V14.01,2013-04-25 09:33:00,
2013-04-25 05:38:00,30.4,28.4,30.28,WSW,254,0.0,0.0,92,0.00,,CLR,0.00,VWS V14.01,2013-04-25 09:38:00,
2013-04-25 05:43:00,30.3,28.3,30.27,WSW,254,0.0,0.0,92,0.00,,CLR,0.00,VWS V14.01,2013-04-25 09:43:00,
2013-04-25 05:45:00,30.3,28.3,30.28,WSW,254,0.0,0.0,92,0.00,,OVC090,0.00,VWS V14.01,2013-04-25 09:45:00,
2013-04-25 05:48:00,30.3,28.3,30.28,WSW,254,0.0,0.0,92,0.00,,CLR,0.00,VWS V14.01,2013-04-25 09:48:00,
2013-04-25 05:54:00,30.4,28.6,30.28,WSW,254,0.0,0.0,93,0.00,,CLR,0.00,VWS V14.01,2013-04-25 09:54:00,
2013-04-25 05:59:00,30.4,28.6,30.29,WSW,254,0.0,0.0,93,0.00,,CLR,0.00,VWS V14.01,2013-04-25 09:59:00,
2013-04-25 06:00:00,30.4,28.6,30.28,WSW,254,0.0,0.0,93,0.00,,OVC090,0.00,VWS V14.01,2013-04-25 10:00:00,
2013-04-25 06:04:00,30.4,28.6,30.28,WSW,254,0.0,0.0,93,0.00,,CLR,0.00,VWS V14.01,2013-04-25 10:04:00,
2013-04-25 06:09:00,30.3,28.3,30.29,WSW,254,0.0,0.0,92,0.00,,CLR,0.00,VWS V14.01,2013-04-25 10:09:00,
2013-04-25 06:14:00,30.3,28.3,30.29,WSW,254,0.0,0.0,92,0.00,,CLR,0.00,VWS V14.01,2013-04-25 10:14:00,
2013-04-25 06:15:00,30.3,28.3,30.29,WSW,254,0.0,0.0,92,0.00,,OVC090,0.00,VWS V14.01,2013-04-25 10:15:00,
2013-04-25 06:19:00,30.3,28.3,30.29,WSW,254,0.0,0.0,92,0.00,,CLR,0.00,VWS V14.01,2013-04-25 10:19:00,
2013-04-25 06:24:00,30.1,28.1,30.29,WSW,254,0.0,0.0,92,0.00,,CLR,0.00,VWS V14.01,2013-04-25 10:24:00,
2013-04-25 06:29:00,30.0,28.0,30.29,WSW,254,0.0,0.0,92,0.00,,CLR,0.00,VWS V14.01,2013-04-25 10:29:00,
2013-04-25 06:30:00,30.0,28.0,30.29,WSW,254,0.0,0.0,92,0.00,,OVC090,0.00,VWS V14.01,2013-04-25 10:30:00,
2013-04-25 06:34:00,30.0,28.0,30.29,WSW,254,0.0,0.0,92,0.00,,CLR,0.00,VWS V14.01,2013-04-25 10:34:00,
2013-04-25 06:39:00,30.0,28.2,30.29,WSW,254,0.0,0.0,93,0.00,,CLR,0.00,VWS V14.01,2013-04-25 10:39:00,
2013-04-25 06:44:00,30.1,28.3,30.29,WSW,254,0.0,0.0,93,0.00,,CLR,0.00,VWS V14.01,2013-04-25 10:44:00,
2013-04-25 06:45:00,30.1,28.3,30.29,WSW,254,0.0,0.0,93,0.00,,OVC090,0.00,VWS V14.01,2013-04-25 10:45:00,
2013-04-25 06:49:00,30.1,28.3,30.29,WSW,254,0.0,0.0,93,0.00,,CLR,0.00,VWS V14.01,2013-04-25 10:49:00,
2013-04-25 06:54:00,30.1,28.3,30.30,WSW,254,0.0,0.0,93,0.00,,CLR,0.00,VWS V14.01,2013-04-25 10:54:00,
2013-04-25 06:59:00,30.1,28.3,30.30,WSW,254,0.0,0.0,93,0.00,,CLR,0.00,VWS V14.01,2013-04-25 10:59:00,
2013-04-25 07:00:00,30.1,28.3,30.30,WSW,254,0.0,0.0,93,0.00,,OVC090,0.00,VWS V14.01,2013-04-25 11:00:00,
2013-04-25 07:04:00,30.1,28.3,30.30,WSW,254,0.0,0.0,93,0.00,,,0.00,VWS V14.01,2013-04-25 11:04:00,
2013-04-25 07:09:00,30.3,28.5,30.30,WSW,254,0.0,0.0,93,0.00,,,0.00,VWS V14.01,2013-04-25 11:09:00,
2013-04-25 07:14:00,30.4,28.6,30.31,WSW,254,0.0,0.0,93,0.00,,,0.00,VWS V14.01,2013-04-25 11:14:00,
2013-04-25 07:15:00,30.4,28.6,30.31,WSW,254,0.0,0.0,93,0.00,,OVC090,0.00,VWS V14.01,2013-04-25 11:15:00,
2013-04-25 07:19:00,30.9,29.1,30.31,WSW,254,0.0,0.0,93,0.00,,,0.00,VWS V14.01,2013-04-25 11:19:00,
2013-04-25 07:24:00,31.8,30.3,30.31,WSW,254,0.0,0.0,94,0.00,,,0.00,VWS V14.01,2013-04-25 11:24:00,
2013-04-25 07:29:00,32.8,32.0,30.30,WSW,254,0.0,0.0,97,0.00,,,0.00,VWS V14.01,2013-04-25 11:29:00,
2013-04-25 07:30:00,32.9,32.1,30.30,WSW,254,0.0,0.0,97,0.00,,OVC090,0.00,VWS V14.01,2013-04-25 11:30:00,
2013-04-25 07:34:00,34.0,33.8,30.30,WSW,254,0.0,0.0,99,0.00,,,0.00,VWS V14.01,2013-04-25 11:34:00,
2013-04-25 07:39:00,34.6,33.3,30.30,WSW,254,0.0,0.0,95,0.00,,,0.00,VWS V14.01,2013-04-25 11:39:00,
2013-04-25 07:44:00,34.9,33.3,30.31,WSW,254,0.0,0.0,94,0.00,,,0.00,VWS V14.01,2013-04-25 11:44:00,
2013-04-25 07:45:00,34.9,33.3,30.31,WSW,254,0.0,0.0,94,0.00,,OVC090,0.00,VWS V14.01,2013-04-25 11:45:00,
2013-04-25 07:50:00,35.0,33.5,30.31,WSW,254,0.0,0.0,94,0.00,,,0.00,VWS V14.01,2013-04-25 11:50:00,
2013-04-25 07:55:00,35.5,34.0,30.30,WSW,254,0.0,0.0,94,0.00,,,0.00,VWS V14.01,2013-04-25 11:55:00,
2013-04-25 08:00:00,36.0,34.4,30.31,WSW,254,0.0,0.0,94,0.00,,,0.00,VWS V14.01,2013-04-25 12:00:00,
2013-04-25 08:05:00,36.5,34.9,30.31,WSW,254,0.0,0.0,94,0.00,,FEW046,0.00,VWS V14.01,2013-04-25 12:05:00,
2013-04-25 08:10:00,36.9,35.3,30.31,WSW,253,0.0,0.0,94,0.00,,FEW046,0.00,VWS V14.01,2013-04-25 12:10:00,
2013-04-25 08:15:00,37.3,35.7,30.31,SW,227,0.0,0.0,94,0.00,,FEW046,0.00,VWS V14.01,2013-04-25 12:15:00,
2013-04-25 08:20:00,37.8,36.2,30.31,SW,226,0.0,3.0,94,0.00,,FEW046,0.00,VWS V14.01,2013-04-25 12:20:00,
2013-04-25 08:25:00,38.0,36.2,30.31,SSW,208,3.0,6.0,93,0.00,,FEW046,0.00,VWS V14.01,2013-04-25 12:25:00,
2013-04-25 08:30:00,38.5,36.7,30.31,SW,216,0.0,6.0,93,0.00,,FEW046,0.00,VWS V14.01,2013-04-25 12:30:00,
2013-04-25 08:35:00,39.1,37.2,30.31,SW,232,3.0,5.0,93,0.00,,FEW046,0.00,VWS V14.01,2013-04-25 12:35:00,
2013-04-25 08:40:00,39.8,38.0,30.30,West,270,0.0,5.0,93,0.00,,FEW046,0.00,VWS V14.01,2013-04-25 12:40:00,
2013-04-25 08:45:00,40.5,38.1,30.30,SSW,210,0.0,5.0,91,0.00,,FEW046,0.00,VWS V14.01,2013-04-25 12:45:00,
2013-04-25 08:50:00,41.1,38.4,30.30,SSW,212,0.0,5.0,90,0.00,,FEW046,0.00,VWS V14.01,2013-04-25 12:50:00,
2013-04-25 08:55:00,41.6,38.0,30.30,SSW,210,3.0,6.0,87,0.01,,FEW046,0.01,VWS V14.01,2013-04-25 12:55:00,
2013-04-25 09:00:00,42.2,38.3,30.30,SSW,200,0.0,7.0,86,0.01,,FEW046,0.01,VWS V14.01,2013-04-25 13:00:00,
2013-04-25 09:05:00,42.9,38.1,30.30,SSE,164,0.0,7.0,83,0.01,,CLR,0.01,VWS V14.01,2013-04-25 13:05:00,
2013-04-25 09:10:00,43.5,37.8,30.31,SW,216,0.0,6.0,80,0.01,,CLR,0.01,VWS V14.01,2013-04-25 13:10:00,
2013-04-25 09:15:00,44.2,38.4,30.30,SW,216,0.0,6.0,80,0.01,,CLR,0.01,VWS V14.01,2013-04-25 13:15:00,
2013-04-25 09:20:00,45.2,38.8,30.31,SW,215,0.0,0.0,78,0.01,,CLR,0.01,VWS V14.01,2013-04-25 13:20:00,
2013-04-25 09:25:00,45.7,37.9,30.30,SSW,200,0.0,5.0,74,0.01,,CLR,0.01,VWS V14.01,2013-04-25 13:25:00,
2013-04-25 09:30:00,45.8,37.0,30.30,SSW,192,0.0,6.0,71,0.01,,CLR,0.01,VWS V14.01,2013-04-25 13:30:00,
2013-04-25 09:35:00,45.8,35.5,30.31,SSW,208,6.0,11.0,67,0.01,,CLR,0.01,VWS V14.01,2013-04-25 13:35:00,
2013-04-25 09:40:00,45.8,36.2,30.31,SW,222,0.0,11.0,69,0.01,,CLR,0.01,VWS V14.01,2013-04-25 13:40:00,
2013-04-25 09:45:00,46.4,35.7,30.30,SSW,212,0.0,13.0,66,0.01,,CLR,0.01,VWS V14.01,2013-04-25 13:45:00,
2013-04-25 09:50:00,46.5,35.8,30.30,SSW,198,5.0,13.0,66,0.01,,CLR,0.01,VWS V14.01,2013-04-25 13:50:00,
2013-04-25 09:55:00,46.8,36.4,30.30,SSW,212,2.0,11.0,67,0.01,,CLR,0.01,VWS V14.01,2013-04-25 13:55:00,
2013-04-25 10:00:00,47.4,35.8,30.30,West,261,0.0,7.0,64,0.00,,CLR,0.01,VWS V14.01,2013-04-25 14:00:00,
2013-04-25 10:05:00,48.0,36.0,30.31,SSW,213,0.0,10.0,63,0.00,,CLR,0.01,VWS V14.01,2013-04-25 14:05:00,
2013-04-25 10:10:00,48.2,35.8,30.31,SW,222,0.0,13.0,62,0.00,,CLR,0.01,VWS V14.01,2013-04-25 14:10:00,
2013-04-25 10:15:00,47.6,35.6,30.31,South,178,0.0,13.0,63,0.00,,CLR,0.01,VWS V14.01,2013-04-25 14:15:00,
2013-04-25 10:20:00,46.8,34.1,30.31,WSW,239,3.0,13.0,61,0.00,,CLR,0.01,VWS V14.01,2013-04-25 14:20:00,
2013-04-25 10:25:00,46.1,33.0,30.31,SW,217,5.0,13.0,60,0.00,,CLR,0.01,VWS V14.01,2013-04-25 14:25:00,
2013-04-25 10:30:00,46.0,32.5,30.31,West,263,7.0,12.0,59,0.00,,CLR,0.01,VWS V14.01,2013-04-25 14:30:00,
2013-04-25 10:35:00,46.4,32.9,30.31,WNW,284,8.0,12.0,59,0.00,,CLR,0.01,VWS V14.01,2013-04-25 14:35:00,
2013-04-25 10:40:00,47.1,33.1,30.31,SW,220,7.0,12.0,58,0.00,,CLR,0.01,VWS V14.01,2013-04-25 14:40:00,
2013-04-25 10:45:00,47.6,33.1,30.31,SSW,206,2.0,15.0,57,0.00,,CLR,0.01,VWS V14.01,2013-04-25 14:45:00,
2013-04-25 10:50:00,47.9,33.8,30.31,WSW,241,0.0,14.0,58,0.00,,CLR,0.01,VWS V14.01,2013-04-25 14:50:00,
2013-04-25 10:55:00,48.8,34.7,30.31,WSW,237,0.0,7.0,58,0.00,,CLR,0.01,VWS V14.01,2013-04-25 14:55:00,
2013-04-25 11:00:00,49.1,35.0,30.30,SW,227,0.0,9.0,58,0.00,,CLR,0.01,VWS V14.01,2013-04-25 15:00:00,
2013-04-25 11:05:00,48.9,35.2,30.31,WNW,285,5.0,14.0,59,0.00,,SCT033,0.01,VWS V14.01,2013-04-25 15:05:00,
2013-04-25 11:10:00,48.6,33.6,30.31,WSW,243,4.0,13.0,56,0.00,,SCT033,0.01,VWS V14.01,2013-04-25 15:10:00,
2013-04-25 11:15:00,48.9,35.2,30.31,SW,224,0.0,13.0,59,0.00,,OVC090,0.01,VWS V14.01,2013-04-25 15:15:00,
2013-04-25 11:16:00,49.2,36.8,30.31,SW,232,5.0,13.0,62,0.00,,SCT033,0.01,VWS V14.01,2013-04-25 15:16:00,
2013-04-25 11:21:00,49.4,33.9,30.30,WSW,250,6.0,11.0,55,0.00,,SCT033,0.01,VWS V14.01,2013-04-25 15:21:00,
2013-04-25 11:26:00,49.2,32.8,30.31,SSW,205,1.0,13.0,53,0.00,,SCT033,0.01,VWS V14.01,2013-04-25 15:26:00,
2013-04-25 11:30:00,49.4,34.8,30.30,South,182,4.0,16.0,57,0.00,,OVC090,0.01,VWS V14.01,2013-04-25 15:30:00,
2013-04-25 11:31:00,49.5,34.0,30.30,SSW,203,2.0,16.0,55,0.00,,SCT033,0.01,VWS V14.01,2013-04-25 15:31:00,
2013-04-25 11:36:00,50.4,35.3,30.30,SSW,203,3.0,10.0,56,0.00,,SCT033,0.01,VWS V14.01,2013-04-25 15:36:00,
2013-04-25 11:41:00,50.4,31.5,30.31,SSW,210,1.0,11.0,48,0.00,,SCT033,0.01,VWS V14.01,2013-04-25 15:41:00,
2013-04-25 11:45:00,50.4,32.5,30.31,SW,230,7.0,13.0,50,0.00,,OVC090,0.01,VWS V14.01,2013-04-25 15:45:00,
2013-04-25 11:46:00,50.4,32.5,30.31,SW,223,1.0,13.0,50,0.00,,SCT033,0.01,VWS V14.01,2013-04-25 15:46:00,
2013-04-25 11:51:00,50.8,34.3,30.31,SE,127,2.0,13.0,53,0.00,,SCT033,0.01,VWS V14.01,2013-04-25 15:51:00,
2013-04-25 11:56:00,51.4,36.7,30.30,SSW,193,6.0,12.0,57,0.00,,SCT033,0.01,VWS V14.01,2013-04-25 15:56:00,
2013-04-25 12:00:00,52.0,34.9,30.30,SSW,196,0.0,12.0,52,0.00,,OVC090,0.01,VWS V14.01,2013-04-25 16:00:00,
2013-04-25 12:01:00,52.2,35.1,30.30,SSW,209,1.0,12.0,52,0.00,,SCT033,0.01,VWS V14.01,2013-04-25 16:01:00,
2013-04-25 12:06:00,52.0,34.9,30.30,SSW,192,6.0,17.0,52,0.00,,SCT040,0.01,VWS V14.01,2013-04-25 16:06:00,
2013-04-25 12:11:00,52.2,35.6,30.30,SSE,152,6.0,17.0,53,0.00,,SCT040,0.01,VWS V14.01,2013-04-25 16:11:00,
2013-04-25 12:15:00,52.5,35.9,30.30,SSW,209,5.0,12.0,53,0.00,,OVC090,0.01,VWS V14.01,2013-04-25 16:15:00,
2013-04-25 12:16:00,52.5,34.9,30.30,SW,229,8.0,12.0,51,0.00,,SCT040,0.01,VWS V14.01,2013-04-25 16:16:00,
2013-04-25 12:21:00,52.6,36.0,30.30,SW,217,2.0,16.0,53,0.00,,SCT040,0.01,VWS V14.01,2013-04-25 16:21:00,
2013-04-25 12:26:00,52.9,34.8,30.29,South,188,5.0,12.0,50,0.00,,SCT040,0.01,VWS V14.01,2013-04-25 16:26:00,
2013-04-25 12:30:00,52.8,35.2,30.29,SW,215,0.0,16.0,51,0.00,,OVC090,0.01,VWS V14.01,2013-04-25 16:30:00,
2013-04-25 12:31:00,52.8,35.2,30.29,SW,234,7.0,16.0,51,0.00,,SCT040,0.01,VWS V14.01,2013-04-25 16:31:00,
2013-04-25 12:36:00,52.2,34.1,30.29,SSW,196,0.0,12.0,50,0.00,,SCT040,0.01,VWS V14.01,2013-04-25 16:36:00,
2013-04-25 12:41:00,52.0,35.4,30.30,WSW,251,2.0,13.0,53,0.00,,SCT040,0.01,VWS V14.01,2013-04-25 16:41:00,
2013-04-25 12:45:00,52.8,34.2,30.30,West,277,0.0,11.0,49,0.00,,OVC090,0.01,VWS V14.01,2013-04-25 16:45:00,
2013-04-25 12:46:00,53.1,36.4,30.30,SW,223,0.0,10.0,53,0.00,,SCT040,0.01,VWS V14.01,2013-04-25 16:46:00,
2013-04-25 12:51:00,53.5,34.8,30.29,SSW,200,6.0,12.0,49,0.00,,SCT040,0.01,VWS V14.01,2013-04-25 16:51:00,
2013-04-25 12:56:00,53.9,34.7,30.29,SSW,212,0.0,14.0,48,0.00,,SCT040,0.01,VWS V14.01,2013-04-25 16:56:00,
2013-04-25 13:00:00,54.2,33.9,30.29,SW,232,0.0,14.0,46,0.00,,OVC090,0.01,VWS V14.01,2013-04-25 17:00:00,
2013-04-25 13:01:00,54.2,33.9,30.29,NW,315,0.0,8.0,46,0.00,,SCT040,0.01,VWS V14.01,2013-04-25 17:01:00,
2013-04-25 13:06:00,54.8,35.5,30.28,SSW,210,0.0,14.0,48,0.00,,FEW044,0.01,VWS V14.01,2013-04-25 17:06:00,
2013-04-25 13:11:00,54.2,35.0,30.28,SW,219,6.0,14.0,48,0.00,,FEW044,0.01,VWS V14.01,2013-04-25 17:11:00,
2013-04-25 13:15:00,54.5,34.7,30.29,WSW,248,10.0,11.0,47,0.00,,OVC090,0.01,VWS V14.01,2013-04-25 17:15:00,
2013-04-25 13:16:00,54.5,33.6,30.29,WSW,243,5.0,11.0,45,0.00,,FEW044,0.01,VWS V14.01,2013-04-25 17:16:00,
2013-04-25 13:21:00,54.5,35.8,30.28,SSW,209,8.0,13.0,49,0.00,,FEW044,0.01,VWS V14.01,2013-04-25 17:21:00,
2013-04-25 13:26:00,54.8,33.9,30.28,SW,217,7.0,17.0,45,0.00,,FEW044,0.01,VWS V14.01,2013-04-25 17:26:00,
2013-04-25 13:30:00,54.8,33.9,30.28,SSW,209,0.0,17.0,45,0.00,,OVC090,0.01,VWS V14.01,2013-04-25 17:30:00,
2013-04-25 13:31:00,54.8,35.0,30.28,West,265,10.0,17.0,47,0.00,,FEW044,0.01,VWS V14.01,2013-04-25 17:31:00,
2013-04-25 13:36:00,54.5,35.2,30.28,South,184,0.0,14.0,48,0.00,,FEW044,0.01,VWS V14.01,2013-04-25 17:36:00,
2013-04-25 13:41:00,54.8,34.4,30.28,West,268,8.0,15.0,46,0.00,,FEW044,0.01,VWS V14.01,2013-04-25 17:41:00,
2013-04-25 13:45:00,55.1,33.6,30.28,SSW,195,5.0,15.0,44,0.00,,OVC090,0.01,VWS V14.01,2013-04-25 17:45:00,
2013-04-25 13:46:00,55.1,34.2,30.28,SW,220,6.0,15.0,45,0.00,,FEW044,0.01,VWS V14.01,2013-04-25 17:46:00,
2013-04-25 13:51:00,55.4,35.0,30.27,West,272,12.0,16.0,46,0.00,,FEW044,0.01,VWS V14.01,2013-04-25 17:51:00,
2013-04-25 13:56:00,55.3,33.8,30.27,SSW,200,16.0,16.0,44,0.00,,FEW044,0.01,VWS V14.01,2013-04-25 17:56:00,
2013-04-25 14:00:00,54.7,32.1,30.27,South,184,0.0,18.0,42,0.00,,OVC090,0.01,VWS V14.01,2013-04-25 18:00:00,
2013-04-25 14:01:00,54.8,33.9,30.27,SSW,208,9.0,18.0,45,0.00,,FEW044,0.01,VWS V14.01,2013-04-25 18:01:00,
2013-04-25 14:06:00,55.3,33.2,30.28,WNW,291,5.0,13.0,43,0.00,,BKN050,0.01,VWS V14.01,2013-04-25 18:06:00,
2013-04-25 14:11:00,55.0,34.1,30.27,SSW,213,14.0,16.0,45,0.00,,BKN050,0.01,VWS V14.01,2013-04-25 18:11:00,
2013-04-25 14:15:00,55.1,35.8,30.27,West,265,0.0,17.0,48,0.00,,OVC090,0.01,VWS V14.01,2013-04-25 18:15:00,
2013-04-25 14:16:00,55.4,36.6,30.27,WSW,244,0.0,17.0,49,0.00,,BKN050,0.01,VWS V14.01,2013-04-25 18:16:00,
2013-04-25 14:21:00,55.3,33.8,30.27,SW,230,6.0,11.0,44,0.00,,BKN050,0.01,VWS V14.01,2013-04-25 18:21:00,
2013-04-25 14:26:00,54.8,33.3,30.27,South,189,7.0,19.0,44,0.00,,BKN050,0.01,VWS V14.01,2013-04-25 18:26:00,
2013-04-25 14:30:00,55.1,34.7,30.27,SSW,198,0.0,19.0,46,0.00,,OVC090,0.01,VWS V14.01,2013-04-25 18:30:00,
2013-04-25 14:31:00,55.4,35.0,30.27,South,185,6.0,18.0,46,0.00,,BKN050,0.01,VWS V14.01,2013-04-25 18:31:00,
2013-04-25 14:36:00,55.3,35.4,30.27,South,189,13.0,17.0,47,0.00,,BKN050,0.01,VWS V14.01,2013-04-25 18:36:00,
2013-04-25 14:41:00,55.4,35.0,30.27,SSW,212,10.0,19.0,46,0.00,,BKN050,0.01,VWS V14.01,2013-04-25 18:41:00,
2013-04-25 14:45:00,55.1,33.0,30.26,SSW,199,13.0,19.0,43,0.00,,OVC090,0.01,VWS V14.01,2013-04-25 18:45:00,
2013-04-25 14:46:00,55.0,33.5,30.26,SSW,193,9.0,19.0,44,0.00,,BKN050,0.01,VWS V14.01,2013-04-25 18:46:00,
2013-04-25 14:51:00,55.1,34.2,30.26,SSW,209,17.0,17.0,45,0.00,,BKN050,0.01,VWS V14.01,2013-04-25 18:51:00,
2013-04-25 14:56:00,55.1,33.0,30.27,SSW,199,16.0,21.0,43,0.00,,BKN050,0.01,VWS V14.01,2013-04-25 18:56:00,
2013-04-25 15:00:00,55.0,33.5,30.27,SW,216,0.0,18.0,44,0.00,,OVC090,0.01,VWS V14.01,2013-04-25 19:00:00,
2013-04-25 15:01:00,55.0,34.6,30.27,SW,226,8.0,18.0,46,0.00,,OVC070,0.01,VWS V14.01,2013-04-25 19:01:00,
2013-04-25 15:06:00,55.0,34.1,30.27,SW,216,12.0,13.0,45,0.00,,OVC070,0.01,VWS V14.01,2013-04-25 19:06:00,
2013-04-25 15:11:00,54.8,35.0,30.27,South,188,6.0,14.0,47,0.00,,OVC070,0.01,VWS V14.01,2013-04-25 19:11:00,
2013-04-25 15:15:00,54.7,34.3,30.27,SSW,200,2.0,14.0,46,0.00,,OVC090,0.01,VWS V14.01,2013-04-25 19:15:00,
2013-04-25 15:16:00,54.5,33.6,30.27,WSW,243,14.0,14.0,45,0.00,,OVC070,0.01,VWS V14.01,2013-04-25 19:16:00,
2013-04-25 15:21:00,54.5,34.7,30.27,SW,233,2.0,14.0,47,0.00,,OVC070,0.01,VWS V14.01,2013-04-25 19:21:00,
2013-04-25 15:26:00,55.0,35.2,30.26,West,263,4.0,11.0,47,0.00,,OVC070,0.01,VWS V14.01,2013-04-25 19:26:00,
2013-04-25 15:30:00,55.3,33.8,30.26,WSW,250,6.0,17.0,44,0.00,,OVC090,0.01,VWS V14.01,2013-04-25 19:30:00,
2013-04-25 15:32:00,55.4,34.4,30.26,SW,234,17.0,17.0,45,0.00,,OVC070,0.01,VWS V14.01,2013-04-25 19:32:00,
2013-04-25 15:37:00,56.2,36.3,30.26,WSW,246,6.0,18.0,47,0.00,,OVC070,0.01,VWS V14.01,2013-04-25 19:37:00,
2013-04-25 15:41:00,56.6,36.1,30.26,SW,222,8.0,20.0,46,0.00,,OVC070,0.01,VWS V14.01,2013-04-25 19:41:00,
2013-04-25 15:45:00,56.6,33.8,30.26,WNW,288,8.0,20.0,42,0.00,,OVC090,0.01,VWS V14.01,2013-04-25 19:45:00,
2013-04-25 15:47:00,56.5,34.9,30.26,WSW,237,1.0,17.0,44,0.00,,OVC070,0.01,VWS V14.01,2013-04-25 19:47:00,
2013-04-25 15:52:00,56.2,35.7,30.25,WNW,296,3.0,17.0,46,0.00,,OVC070,0.01,VWS V14.01,2013-04-25 19:52:00,
2013-04-25 15:56:00,55.9,34.3,30.26,SSW,205,8.0,16.0,44,0.00,,OVC070,0.01,VWS V14.01,2013-04-25 19:56:00,
2013-04-25 16:00:00,55.3,34.3,30.26,WSW,254,7.0,17.0,45,0.00,,OVC090,0.01,VWS V14.01,2013-04-25 20:00:00,
2013-04-25 16:01:00,55.0,34.1,30.26,SW,232,2.0,17.0,45,0.00,,BKN070,0.01,VWS V14.01,2013-04-25 20:01:00,
2013-04-25 16:06:00,54.7,35.9,30.26,SSW,205,6.0,17.0,49,0.00,,BKN070,0.01,VWS V14.01,2013-04-25 20:06:00,
2013-04-25 16:11:00,54.7,33.8,30.26,SW,230,7.0,12.0,45,0.00,,BKN070,0.01,VWS V14.01,2013-04-25 20:11:00,
2013-04-25 16:15:00,55.0,34.6,30.25,SW,215,11.0,14.0,46,0.00,,OVC090,0.01,VWS V14.01,2013-04-25 20:15:00,
2013-04-25 16:16:00,55.3,33.8,30.25,SSW,209,6.0,14.0,44,0.00,,BKN070,0.01,VWS V14.01,2013-04-25 20:16:00,
2013-04-25 16:21:00,55.6,34.6,30.26,WNW,288,18.0,18.0,45,0.00,,BKN070,0.01,VWS V14.01,2013-04-25 20:21:00,
2013-04-25 16:27:00,55.7,35.3,30.26,SSW,198,8.0,18.0,46,0.00,,BKN070,0.01,VWS V14.01,2013-04-25 20:27:00,
2013-04-25 16:30:00,55.9,35.4,30.26,SW,222,6.0,18.0,46,0.00,,OVC090,0.01,VWS V14.01,2013-04-25 20:30:00,
2013-04-25 16:32:00,56.2,35.2,30.26,SSW,192,12.0,18.0,45,0.00,,BKN070,0.01,VWS V14.01,2013-04-25 20:32:00,
2013-04-25 16:37:00,56.0,34.4,30.26,WSW,237,11.0,17.0,44,0.00,,BKN070,0.01,VWS V14.01,2013-04-25 20:37:00,
2013-04-25 16:42:00,55.3,34.9,30.26,SW,220,7.0,16.0,46,0.00,,BKN070,0.01,VWS V14.01,2013-04-25 20:42:00,
2013-04-25 16:45:00,54.8,34.4,30.25,SW,216,3.0,16.0,46,0.00,,OVC090,0.01,VWS V14.01,2013-04-25 20:45:00,
2013-04-25 16:47:00,54.7,34.3,30.25,SW,230,8.0,12.0,46,0.00,,BKN070,0.01,VWS V14.01,2013-04-25 20:47:00,
2013-04-25 16:52:00,54.8,37.0,30.26,West,270,0.0,12.0,51,0.00,,BKN070,0.01,VWS V14.01,2013-04-25 20:52:00,
2013-04-25 16:57:00,55.0,36.2,30.26,WSW,247,6.0,12.0,49,0.00,,BKN070,0.01,VWS V14.01,2013-04-25 20:57:00,
2013-04-25 17:00:00,55.0,35.7,30.26,SW,222,3.0,8.0,48,0.00,,OVC090,0.01,VWS V14.01,2013-04-25 21:00:00,
2013-04-25 17:02:00,55.1,35.2,30.26,SW,215,0.0,10.0,47,0.00,,OVC090,0.01,VWS V14.01,2013-04-25 21:02:00,
2013-04-25 17:07:00,55.4,36.1,30.26,WNW,289,4.0,11.0,48,0.00,,OVC090,0.01,VWS V14.01,2013-04-25 21:07:00,
2013-04-25 17:12:00,55.7,35.3,30.26,SSW,210,5.0,18.0,46,0.00,,OVC090,0.01,VWS V14.01,2013-04-25 21:12:00,
2013-04-25 17:15:00,55.6,34.6,30.26,SW,222,6.0,18.0,45,0.00,,OVC090,0.01,VWS V14.01,2013-04-25 21:15:00,
2013-04-25 17:17:00,55.3,34.3,30.26,SSW,210,7.0,18.0,45,0.00,,OVC090,0.01,VWS V14.01,2013-04-25 21:17:00,
2013-04-25 17:22:00,55.0,34.6,30.26,SSW,206,16.0,18.0,46,0.00,,OVC090,0.01,VWS V14.01,2013-04-25 21:22:00,
2013-04-25 17:27:00,54.8,34.4,30.26,SSE,167,1.0,21.0,46,0.00,,OVC090,0.01,VWS V14.01,2013-04-25 21:27:00,
2013-04-25 17:30:00,55.1,35.2,30.26,SSW,208,6.0,21.0,47,0.00,,OVC090,0.01,VWS V14.01,2013-04-25 21:30:00,
2013-04-25 17:32:00,55.4,35.0,30.26,WSW,239,4.0,19.0,46,0.00,,OVC090,0.01,VWS V14.01,2013-04-25 21:32:00,
2013-04-25 17:37:00,55.4,34.4,30.26,WSW,256,3.0,19.0,45,0.00,,OVC090,0.01,VWS V14.01,2013-04-25 21:37:00,
2013-04-25 17:42:00,55.3,34.3,30.27,WSW,256,7.0,19.0,45,0.00,,OVC090,0.01,VWS V14.01,2013-04-25 21:42:00,
2013-04-25 17:45:00,55.1,34.7,30.27,WSW,250,0.0,19.0,46,0.00,,OVC090,0.01,VWS V14.01,2013-04-25 21:45:00,
2013-04-25 17:47:00,55.0,35.7,30.27,SW,224,0.0,17.0,48,0.00,,OVC090,0.01,VWS V14.01,2013-04-25 21:47:00,
2013-04-25 17:52:00,54.8,35.5,30.27,SW,233,0.0,10.0,48,0.00,,OVC090,0.01,VWS V14.01,2013-04-25 21:52:00,
2013-04-25 17:57:00,54.5,35.8,30.27,West,281,0.0,7.0,49,0.00,,OVC090,0.01,VWS V14.01,2013-04-25 21:57:00,
2013-04-25 18:00:00,54.5,35.8,30.27,SW,233,0.0,7.0,49,0.00,,OVC090,0.01,VWS V14.01,2013-04-25 22:00:00,
2013-04-25 18:02:00,54.5,36.3,30.27,WSW,239,0.0,7.0,50,0.00,,OVC085,0.01,VWS V14.01,2013-04-25 22:02:00,
2013-04-25 18:07:00,54.5,36.3,30.27,West,277,3.0,9.0,50,0.00,,OVC085,0.01,VWS V14.01,2013-04-25 22:07:00,
2013-04-25 18:12:00,54.5,35.8,30.27,SW,229,2.0,11.0,49,0.00,,OVC085,0.01,VWS V14.01,2013-04-25 22:12:00,
2013-04-25 18:15:00,54.5,35.2,30.27,SW,229,1.0,11.0,48,0.00,,OVC090,0.01,VWS V14.01,2013-04-25 22:15:00,
2013-04-25 18:17:00,54.5,35.2,30.27,WSW,247,10.0,11.0,48,0.00,,OVC085,0.01,VWS V14.01,2013-04-25 22:17:00,
2013-04-25 18:22:00,54.5,36.3,30.27,West,268,2.0,14.0,50,0.00,,OVC085,0.01,VWS V14.01,2013-04-25 22:22:00,
2013-04-25 18:27:00,54.5,35.8,30.27,SW,234,6.0,8.0,49,0.00,,OVC085,0.01,VWS V14.01,2013-04-25 22:27:00,
2013-04-25 18:30:00,54.5,35.8,30.27,West,264,5.0,7.0,49,0.00,,OVC090,0.01,VWS V14.01,2013-04-25 22:30:00,
2013-04-25 18:32:00,54.7,36.4,30.27,SW,230,2.0,7.0,50,0.00,,OVC085,0.01,VWS V14.01,2013-04-25 22:32:00,
2013-04-25 18:37:00,54.7,36.4,30.27,West,268,0.0,10.0,50,0.00,,OVC085,0.01,VWS V14.01,2013-04-25 22:37:00,
2013-04-25 18:42:00,54.5,37.2,30.27,WNW,284,2.0,14.0,52,0.00,,OVC085,0.01,VWS V14.01,2013-04-25 22:42:00,
2013-04-25 18:45:00,54.4,37.6,30.27,NW,304,2.0,14.0,53,0.00,,OVC090,0.01,VWS V14.01,2013-04-25 22:45:00,
2013-04-25 18:47:00,54.4,37.6,30.27,WSW,254,5.0,14.0,53,0.00,,OVC085,0.01,VWS V14.01,2013-04-25 22:47:00,
2013-04-25 18:52:00,54.4,36.7,30.27,SW,230,0.0,10.0,51,0.00,,OVC085,0.01,VWS V14.01,2013-04-25 22:52:00,
2013-04-25 18:57:00,54.5,37.2,30.27,WSW,240,2.0,9.0,52,0.00,,OVC085,0.01,VWS V14.01,2013-04-25 22:57:00,
2013-04-25 19:00:00,54.4,36.7,30.27,West,270,5.0,9.0,51,0.00,,OVC090,0.01,VWS V14.01,2013-04-25 23:00:00,
2013-04-25 19:02:00,54.4,36.7,30.27,SW,222,3.0,13.0,51,0.00,,BKN090,0.01,VWS V14.01,2013-04-25 23:02:00,
2013-04-25 19:07:00,54.4,36.7,30.27,WSW,256,0.0,13.0,51,0.00,,BKN090,0.01,VWS V14.01,2013-04-25 23:07:00,
2013-04-25 19:12:00,54.5,36.3,30.27,SW,232,3.0,10.0,50,0.00,,BKN090,0.01,VWS V14.01,2013-04-25 23:12:00,
2013-04-25 19:15:00,54.5,36.8,30.27,SW,236,3.0,10.0,51,0.00,,OVC090,0.01,VWS V14.01,2013-04-25 23:15:00,
2013-04-25 19:17:00,54.5,36.8,30.27,SW,220,2.0,10.0,51,0.00,,BKN090,0.01,VWS V14.01,2013-04-25 23:17:00,
2013-04-25 19:23:00,54.5,37.2,30.27,SSW,210,0.0,7.0,52,0.00,,BKN090,0.01,VWS V14.01,2013-04-25 23:23:00,
2013-04-25 19:28:00,54.5,37.2,30.27,WSW,246,12.0,12.0,52,0.00,,BKN090,0.01,VWS V14.01,2013-04-25 23:28:00,
2013-04-25 19:30:00,54.7,36.9,30.27,West,274,2.0,12.0,51,0.00,,SCT032,0.01,VWS V14.01,2013-04-25 23:30:00,
2013-04-25 19:33:00,54.7,36.9,30.27,NW,311,7.0,12.0,51,0.00,,BKN090,0.01,VWS V14.01,2013-04-25 23:33:00,
2013-04-25 19:38:00,54.4,37.2,30.28,NW,309,2.0,18.0,52,0.00,,BKN090,0.01,VWS V14.01,2013-04-25 23:38:00,
2013-04-25 19:43:00,53.9,37.2,30.28,North,349,0.0,11.0,53,0.00,,BKN090,0.01,VWS V14.01,2013-04-25 23:43:00,
2013-04-25 19:45:00,53.6,37.4,30.29,NNW,337,2.0,9.0,54,0.00,,OVC090,0.01,VWS V14.01,2013-04-25 23:45:00,
2013-04-25 19:48:00,53.5,37.8,30.29,NW,313,2.0,9.0,55,0.00,,BKN090,0.01,VWS V14.01,2013-04-25 23:48:00,
2013-04-25 19:53:00,53.1,37.4,30.30,NNW,335,0.0,7.0,55,0.00,,BKN090,0.01,VWS V14.01,2013-04-25 23:53:00,
2013-04-25 19:58:00,52.8,37.5,30.30,NW,313,2.0,7.0,56,0.00,,BKN090,0.01,VWS V14.01,2013-04-25 23:58:00,
2013-04-25 20:00:00,52.8,37.5,30.31,NW,306,0.0,7.0,56,0.00,,OVC090,0.01,VWS V14.01,2013-04-26 00:00:00,
2013-04-25 20:03:00,52.6,36.9,30.31,North,0,5.0,7.0,55,0.00,,BKN080,0.01,VWS V14.01,2013-04-26 00:03:00,
2013-04-25 20:08:00,52.3,37.1,30.30,North,0,0.0,7.0,56,0.00,,BKN080,0.01,VWS V14.01,2013-04-26 00:08:00,
2013-04-25 20:13:00,52.0,35.4,30.30,North,352,6.0,14.0,53,0.00,,BKN080,0.01,VWS V14.01,2013-04-26 00:13:00,
2013-04-25 20:15:00,51.9,35.3,30.30,NNW,342,1.0,14.0,53,0.00,,OVC090,0.01,VWS V14.01,2013-04-26 00:15:00,
2013-04-25 20:18:00,51.7,34.2,30.30,NNW,335,11.0,16.0,51,0.00,,BKN080,0.01,VWS V14.01,2013-04-26 00:18:00,
2013-04-25 20:23:00,51.4,33.9,30.30,NNW,343,6.0,16.0,51,0.00,,BKN080,0.01,VWS V14.01,2013-04-26 00:23:00,
2013-04-25 20:28:00,51.3,33.8,30.31,NNW,329,6.0,10.0,51,0.00,,BKN080,0.01,VWS V14.01,2013-04-26 00:28:00,
2013-04-25 20:30:00,51.1,33.6,30.31,NNW,329,5.0,10.0,51,0.00,,OVC090,0.01,VWS V14.01,2013-04-26 00:30:00,
2013-04-25 20:33:00,51.0,33.0,30.31,North,359,6.0,10.0,50,0.00,,BKN080,0.01,VWS V14.01,2013-04-26 00:33:00,
2013-04-25 20:38:00,50.5,33.1,30.31,North,349,2.0,10.0,51,0.00,,BKN080,0.01,VWS V14.01,2013-04-26 00:38:00,
2013-04-25 20:43:00,50.4,32.5,30.32,NNW,346,3.0,5.0,50,0.00,,BKN080,0.01,VWS V14.01,2013-04-26 00:43:00,
2013-04-25 20:45:00,50.2,32.3,30.32,NNW,335,1.0,5.0,50,0.00,,OVC090,0.01,VWS V14.01,2013-04-26 00:45:00,
2013-04-25 20:48:00,50.1,32.7,30.32,North,352,0.0,3.0,51,0.00,,BKN080,0.01,VWS V14.01,2013-04-26 00:48:00,
2013-04-25 20:53:00,49.6,32.2,30.32,West,260,0.0,5.0,51,0.00,,BKN080,0.01,VWS V14.01,2013-04-26 00:53:00,
2013-04-25 20:58:00,49.4,32.0,30.32,North,0,0.0,6.0,51,0.00,,BKN080,0.01,VWS V14.01,2013-04-26 00:58:00,
2013-04-25 21:00:00,49.2,31.9,30.33,North,352,0.0,6.0,51,0.00,,OVC090,0.01,VWS V14.01,2013-04-26 01:00:00,
2013-04-25 21:03:00,49.1,31.8,30.33,North,352,0.0,6.0,51,0.00,,BKN070,0.01,VWS V14.01,2013-04-26 01:03:00,
2013-04-25 21:08:00,48.6,30.8,30.32,North,359,1.0,5.0,50,0.00,,BKN070,0.01,VWS V14.01,2013-04-26 01:08:00,
2013-04-25 21:13:00,48.6,30.3,30.33,NNW,342,0.0,6.0,49,0.00,,BKN070,0.01,VWS V14.01,2013-04-26 01:13:00,
2013-04-25 21:15:00,48.5,30.7,30.33,NW,312,0.0,6.0,50,0.00,,OVC090,0.01,VWS V14.01,2013-04-26 01:15:00,
2013-04-25 21:18:00,48.3,31.0,30.33,North,350,0.0,5.0,51,0.00,,BKN070,0.01,VWS V14.01,2013-04-26 01:18:00,
2013-04-25 21:23:00,48.2,30.5,30.34,NW,325,0.0,7.0,50,0.00,,BKN070,0.01,VWS V14.01,2013-04-26 01:23:00,
2013-04-25 21:28:00,48.0,30.8,30.34,NW,313,0.0,8.0,51,0.00,,BKN070,0.01,VWS V14.01,2013-04-26 01:28:00,
2013-04-25 21:30:00,48.0,30.8,30.34,West,281,0.0,8.0,51,0.00,,OVC090,0.01,VWS V14.01,2013-04-26 01:30:00,
2013-04-25 21:33:00,47.9,30.7,30.34,West,277,0.0,6.0,51,0.00,,BKN070,0.01,VWS V14.01,2013-04-26 01:33:00,
2013-04-25 21:38:00,47.7,31.0,30.35,WNW,288,0.0,6.0,52,0.00,,BKN070,0.01,VWS V14.01,2013-04-26 01:38:00,
2013-04-25 21:43:00,47.4,30.7,30.35,WNW,294,0.0,2.0,52,0.00,,BKN070,0.01,VWS V14.01,2013-04-26 01:43:00,
2013-04-25 21:45:00,47.4,30.7,30.35,WNW,294,0.0,0.0,52,0.00,,OVC090,0.01,VWS V14.01,2013-04-26 01:45:00,
2013-04-25 21:48:00,47.3,30.6,30.35,WNW,294,0.0,0.0,52,0.00,,BKN070,0.01,VWS V14.01,2013-04-26 01:48:00,
2013-04-25 21:53:00,46.8,30.6,30.36,WNW,294,0.0,0.0,53,0.00,,BKN070,0.01,VWS V14.01,2013-04-26 01:53:00,
2013-04-25 21:58:00,46.7,30.5,30.36,NNW,336,0.0,3.0,53,0.00,,BKN070,0.01,VWS V14.01,2013-04-26 01:58:00,
2013-04-25 22:00:00,46.7,30.5,30.36,NNW,336,0.0,3.0,53,0.00,,OVC090,0.01,VWS V14.01,2013-04-26 02:00:00,
2013-04-25 22:03:00,46.5,30.3,30.36,NNW,336,0.0,3.0,53,0.00,,BKN070,0.01,VWS V14.01,2013-04-26 02:03:00,
2013-04-25 22:08:00,46.4,29.8,30.36,NNW,335,0.0,0.0,52,0.00,,BKN070,0.01,VWS V14.01,2013-04-26 02:08:00,
2013-04-25 22:13:00,46.2,28.6,30.37,NNW,333,0.0,0.0,50,0.00,,BKN070,0.01,VWS V14.01,2013-04-26 02:13:00,
2013-04-25 22:15:00,46.2,29.1,30.37,NNW,333,0.0,0.0,51,0.00,,OVC090,0.01,VWS V14.01,2013-04-26 02:15:00,
2013-04-25 22:18:00,46.1,29.0,30.37,NNW,333,0.0,0.0,51,0.00,,BKN070,0.01,VWS V14.01,2013-04-26 02:18:00,
2013-04-25 22:24:00,46.0,29.4,30.37,NNW,333,0.0,0.0,52,0.00,,BKN070,0.01,VWS V14.01,2013-04-26 02:24:00,
2013-04-25 22:29:00,45.7,29.1,30.37,NNW,333,0.0,0.0,52,0.00,,BKN070,0.01,VWS V14.01,2013-04-26 02:29:00,
2013-04-25 22:30:00,45.5,28.9,30.37,NNW,333,0.0,0.0,52,0.00,,OVC090,0.01,VWS V14.01,2013-04-26 02:30:00,
2013-04-25 22:34:00,45.2,29.1,30.37,NNW,333,0.0,0.0,53,0.00,,BKN070,0.01,VWS V14.01,2013-04-26 02:34:00,
2013-04-25 22:39:00,44.6,29.0,30.38,NNW,333,0.0,0.0,54,0.00,,BKN070,0.01,VWS V14.01,2013-04-26 02:39:00,
2013-04-25 22:44:00,44.1,29.0,30.38,NNW,333,0.0,0.0,55,0.00,,BKN070,0.01,VWS V14.01,2013-04-26 02:44:00,
2013-04-25 22:45:00,44.1,29.4,30.38,NNW,333,0.0,0.0,56,0.00,,OVC090,0.01,VWS V14.01,2013-04-26 02:45:00,
2013-04-25 22:49:00,43.5,29.7,30.38,NNW,333,0.0,0.0,58,0.00,,BKN070,0.01,VWS V14.01,2013-04-26 02:49:00,
2013-04-25 22:54:00,42.9,30.0,30.38,NNW,333,0.0,0.0,60,0.00,,BKN070,0.01,VWS V14.01,2013-04-26 02:54:00,
2013-04-25 22:59:00,42.5,29.6,30.38,NNW,333,0.0,0.0,60,0.00,,BKN070,0.01,VWS V14.01,2013-04-26 02:59:00,
2013-04-25 23:00:00,42.3,29.4,30.38,NNW,333,0.0,0.0,60,0.00,,OVC090,0.01,VWS V14.01,2013-04-26 03:00:00,
2013-04-25 23:04:00,42.1,29.6,30.38,NNW,333,0.0,0.0,61,0.00,,CLR,0.01,VWS V14.01,2013-04-26 03:04:00,
2013-04-25 23:09:00,41.8,29.8,30.38,NNW,333,0.0,0.0,62,0.00,,CLR,0.01,VWS V14.01,2013-04-26 03:09:00,
2013-04-25 23:14:00,41.3,29.3,30.39,NNW,333,0.0,0.0,62,0.00,,CLR,0.01,VWS V14.01,2013-04-26 03:14:00,
2013-04-25 23:15:00,41.2,29.2,30.39,NNW,333,0.0,0.0,62,0.00,,OVC090,0.01,VWS V14.01,2013-04-26 03:15:00,
2013-04-25 23:19:00,40.9,29.3,30.39,NNW,333,0.0,0.0,63,0.00,,CLR,0.01,VWS V14.01,2013-04-26 03:19:00,
2013-04-25 23:24:00,40.6,29.8,30.39,NNW,333,0.0,0.0,65,0.00,,CLR,0.01,VWS V14.01,2013-04-26 03:24:00,
2013-04-25 23:29:00,40.3,29.5,30.39,NNW,333,0.0,0.0,65,0.00,,CLR,0.01,VWS V14.01,2013-04-26 03:29:00,
2013-04-25 23:30:00,40.3,29.5,30.39,NNW,333,0.0,0.0,65,0.00,,OVC090,0.01,VWS V14.01,2013-04-26 03:30:00,
2013-04-25 23:34:00,40.1,29.7,30.39,NNW,333,0.0,0.0,66,0.00,,CLR,0.01,VWS V14.01,2013-04-26 03:34:00,
2013-04-25 23:39:00,40.1,29.7,30.39,NNW,333,0.0,0.0,66,0.00,,CLR,0.01,VWS V14.01,2013-04-26 03:39:00,
2013-04-25 23:44:00,40.1,30.0,30.39,NNW,333,0.0,0.0,67,0.00,,CLR,0.01,VWS V14.01,2013-04-26 03:44:00,
2013-04-25 23:45:00,40.1,30.0,30.39,NNW,333,0.0,0.0,67,0.00,,OVC090,0.01,VWS V14.01,2013-04-26 03:45:00,
2013-04-25 23:49:00,40.1,30.0,30.39,NNW,333,0.0,0.0,67,0.00,,CLR,0.01,VWS V14.01,2013-04-26 03:49:00,
2013-04-25 23:54:00,39.9,29.5,30.39,NNW,333,0.0,0.0,66,0.00,,CLR,0.01,VWS V14.01,2013-04-26 03:54:00,
2013-04-25 23:59:00,39.9,29.1,30.40,NNW,333,0.0,0.0,65,0.00,,CLR,0.01,VWS V14.01,2013-04-26 03:59:00,